This demonstration page uses our WeatherBlox Daily Observations layout. Learn more.

Left ArrowRight Arrow

Hourly Observations for February 20, 2017

Temp ( °F °C ) Dew Point ( °F °C ) Humidity (%) Winds ( mph kmh ) Pressure ( in mb ) Visibility ( mi km ) Precip ( " mm )
12:53 am 00:53 Clear 47 8.3 27 -2.8 46 46 WNW 9 15 29.86 1011 10 16 0.00 0.00
1:53 am 01:53 Clear 42 5.6 27 -2.8 55 55 W 8 13 29.89 1012 10 16 0.00 0.00
2:53 am 02:53 Clear 43 6.1 27 -2.8 53 53 WSW 10 17 29.89 1012 10 16 0.00 0.00
3:53 am 03:53 Clear 43 6.1 28 -2.2 56 56 W 10 17 29.89 1012 10 16 0.00 0.00
4:53 am 04:53 Clear 44 6.7 31 -0.6 60 60 W 12 19 29.90 1012 10 16 0.00 0.00
5:53 am 05:53 Clear 45 7.2 32 0 61 61 W 13 20 29.90 1012 10 16 0.00 0.00
6:53 am 06:53 Clear 46 7.8 34 1.1 63 63 W 13 20 29.91 1013 10 16 0.00 0.00
7:53 am 07:53 Sunny 46 7.8 34 1.1 63 63 W 14 22 29.93 1013 10 16 0.00 0.00
8:53 am 08:53 Sunny 52 11.1 35 1.7 53 53 W 20 31 29.94 1014 10 16 0.00 0.00
9:53 am 09:53 Sunny 57 13.9 35 1.7 44 44 W 17 28 29.95 1014 10 16 0.00 0.00
10:53 am 10:53 Sunny 65 18.3 31 -0.6 28 28 WNW 25 41 29.96 1015 10 16 0.00 0.00
11:53 am 11:53 Sunny 67 19.4 30 -1.1 25 25 NW 26 43 29.97 1015 10 16 0.00 0.00
12:53 pm 12:53 Sunny 69 20.6 29 -1.7 22 22 NNW 23 37 29.97 1015 10 16 0.00 0.00
1:53 pm 13:53 Sunny 71 21.7 30 -1.1 22 22 NNW 14 22 29.96 1014 10 16 0.00 0.00
2:53 pm 14:53 Partly Cloudy 73 22.8 27 -2.8 18 18 NNW 15 24 29.95 1014 10 16 0.00 0.00
3:53 pm 15:53 Mostly Sunny 74 23.3 21 -6.1 14 14 NNE 17 28 29.95 1014 10 16 0.00 0.00
4:53 pm 16:53 Sunny 73 22.8 20 -6.7 13 13 NW 17 28 29.96 1014 10 16 0.00 0.00
5:53 pm 17:53 Sunny 71 21.7 22 -5.6 16 16 NW 15 24 29.98 1015 10 16 0.00 0.00
6:53 pm 18:53 Clear 63 17.2 23 -5 22 22 WNW 8 13 30.02 1017 10 16 0.00 0.00
7:53 pm 19:53 Clear 57 13.9 22 -5.6 26 26 WNW 9 15 30.04 1017 10 16 0.00 0.00
8:53 pm 20:53 Clear 53 11.7 22 -5.6 30 30 NW 3 6 30.05 1018 10 16 0.00 0.00
9:53 pm 21:53 undefined 50 10 22 -5.6 33 33 WNW 5 7 30.05 1018 N/A 0.00 0.00
10:53 pm 22:53 Clear 49 9.4 24 -4.4 38 38 W 8 13 30.06 1018 10 16 0.00 0.00
11:53 pm 23:53 Clear 48 8.9 25 -3.9 41 41 WNW 6 9 30.05 1018 10 16 0.00 0.00

Powered by AerisWeather